Address 0x9bfa97bc57303c26e26b1f425a549f02a407f371

Txn Hash Method
Block
From
To
Value [Txn Fee]
0xa09506a285f6777e4c1e4aaffba06f1d35ff0d5734f62c0214d70ef409d26aacTransfer149866082022-05-21 12:39:2619 mins ago0xe65bb2ec324647bb3b2c6a7e90b2f0b9c24753e6 IN 0x9bfa97bc57303c26e26b1f425a549f02a407f3711.099265 AVAX0.000735 35
0x3590754791af4a768bd20a8d5d41e677307f8ff48fd1e4a36c3decf1a4e52fe5Transfer149854292022-05-21 12:00:0458 mins ago0xeec9b97041d2e7485512cbde0e30b84ca11d31fb IN 0x9bfa97bc57303c26e26b1f425a549f02a407f37110.499265 AVAX0.000735 35
0x5a72221fbf0b221abc70f67fece2b7ac31c5d7241ed1759f97d0691ebc8fdc6bTransfer149851592022-05-21 11:51:031 hr 8 mins ago0xa801990cc02a13ec5830612cf4fed75d384acc86 IN 0x9bfa97bc57303c26e26b1f425a549f02a407f3717.00168734 AVAX0.000735 35
0xae176c6c1396a9868a7801742d3c13f1c77a01ea1815a46ede7a04c28a7cddf3Transfer149848302022-05-21 11:40:031 hr 19 mins ago0x474203b76db86639d9889f0f0c97c9058608d717 IN 0x9bfa97bc57303c26e26b1f425a549f02a407f3711.199265 AVAX0.000735 35
0xc6346b9ef05551802a04e58753f24676ac9ef56434ccae46373858b02519c796Transfer149836512022-05-21 11:00:421 hr 58 mins ago0x6f194a008d8642809e7dede9aa5dc1f39136d79a IN 0x9bfa97bc57303c26e26b1f425a549f02a407f3718.999265 AVAX0.000735 35
0x78c821e09e7278ae21c4669c044cd63cdb3ad4dfc9a2c8356c2c79333faa56b0Transfer149817362022-05-21 9:56:383 hrs 2 mins ago0xe4613d92de6171cd97d64cfc84e474a10f1a2fe0 IN 0x9bfa97bc57303c26e26b1f425a549f02a407f3711.399265 AVAX0.000735 35
0xddc3c736b4af3c16ac2e4627acf7a46d8fcd1b26f9e496bdb98366bba7b4beffTransfer149808582022-05-21 9:27:163 hrs 31 mins ago0x58ea5a074cc6acb908ed5eeef8cc77880f5a177e IN 0x9bfa97bc57303c26e26b1f425a549f02a407f371582.199265 AVAX0.000735 35
0x380381af1e6961e7e30f7a9f5882001e6b8653c21a78d68822bcba2dbaf5ad8cTransfer149807622022-05-21 9:23:583 hrs 35 mins ago0x58ea5a074cc6acb908ed5eeef8cc77880f5a177e IN 0x9bfa97bc57303c26e26b1f425a549f02a407f3710.999265 AVAX0.000735 35
0x27b71681844bd491d65908a374347e36fc5feb22b66bbabb534fb5bd63294c79Transfer149806922022-05-21 9:21:353 hrs 37 mins ago0xd11a099b233354360cf2f07cbedaf56bc68b0173 IN 0x9bfa97bc57303c26e26b1f425a549f02a407f3712.635265 AVAX0.000735 35
0xd9883a1f8b00ffb6ba8be6aeaacfb9481ef33492835aa831098ec902daf42983Transfer149805822022-05-21 9:17:553 hrs 41 mins ago0xdc5147e89315a4a1f6080ef3d2efcf4551fbb3ac IN 0x9bfa97bc57303c26e26b1f425a549f02a407f3710.249265 AVAX0.000735 35
0x22da34f976a7ac94516273804cb57d4b8f69c9a350900bad6bc658a6ff57fec5Transfer149797852022-05-21 8:51:154 hrs 7 mins ago0xe51b338eca7e298a2ce747e29e0821288d558457 IN 0x9bfa97bc57303c26e26b1f425a549f02a407f3718.29382049 AVAX0.000735 35
0x5eb3fae676a8f0de6d95350c13e3db8e6ff8db48cc391b99e039348e16b2dbb0Transfer149781402022-05-21 7:55:535 hrs 3 mins ago0x634237556ff8bb1e7e64a07bc462dde52627a8ac IN 0x9bfa97bc57303c26e26b1f425a549f02a407f3713.758265 AVAX0.000735 35
0x44592a5de64bc8c97b9a56881f0fae2446e910135204b0b37a830f7970701de3Transfer149779482022-05-21 7:49:235 hrs 9 mins ago0x9bfa97bc57303c26e26b1f425a549f02a407f371OUT 0xfcc6ce74f4cd7edef0c5429bb99d38a3608043a50 AVAX0.000861025 25
0xc26ef41253723c2f8fcf9e8ca2bd7f6d7be9444cc12df839ce997dd53fe871abTransfer149770032022-05-21 7:17:495 hrs 41 mins ago0x19140b70254f501183f1affc90dca96560ded4ba IN 0x9bfa97bc57303c26e26b1f425a549f02a407f3719.789265 AVAX0.000735 35
0x1543bb0e48cf01b1f2116ade6a7ee0e1b61711242d7f8c3c514b62c880770820Transfer149768232022-05-21 7:11:495 hrs 47 mins ago0x19140b70254f501183f1affc90dca96560ded4ba IN 0x9bfa97bc57303c26e26b1f425a549f02a407f3710.189265 AVAX0.000735 35
0x3b4d496f85c6974cf419ef958f349f9ace7fc9d879a3691920a7227fa1ef924aTransfer149767522022-05-21 7:09:295 hrs 49 mins ago0x9bfa97bc57303c26e26b1f425a549f02a407f371OUT0xf32becb38aef6ecc78bccf2fdaa54815897b8f300.003567246666666 AVAX0.000735 35
0xd9f783c918f97475dc532e72c0460776c06f8702849af233c49f6e8787268decTransfer149766222022-05-21 7:05:095 hrs 53 mins ago0x9bfa97bc57303c26e26b1f425a549f02a407f371OUT0x58b63d434ab51d531ac8c6a1c9a61ce41a4875710.003567806666666 AVAX0.000735 35
0xd6351cb86909df0a7bf268b9dc0511a1097ed172618e8ea660ad7c6133d3aedaTransfer149764512022-05-21 6:59:255 hrs 59 mins ago0x9bfa97bc57303c26e26b1f425a549f02a407f371OUT 0xfcc6ce74f4cd7edef0c5429bb99d38a3608043a50 AVAX0.000861325 25
0xcb532ebd385ef283762a3758f10d218beee404ff49a58e7153c047e74efbd23fTransfer149761552022-05-21 6:49:296 hrs 9 mins ago0x9bfa97bc57303c26e26b1f425a549f02a407f371OUT 0xfcc6ce74f4cd7edef0c5429bb99d38a3608043a50 AVAX0.000861325 25
0x38603e99f2f7513c566e208ed3dacfa8b79e0afcfe599eb61957e7cd6b4497a1Transfer149755952022-05-21 6:30:486 hrs 28 mins ago0xc5e337dcfa7d825eb5bf3ef899e6a7b83ad9726c IN 0x9bfa97bc57303c26e26b1f425a549f02a407f3711.399265 AVAX0.000735 35
0xa202d6c5a5dcc3da4861d9b8d1d844404dfdab44a7f42c351f5e6b1faa495f2aTransfer149752642022-05-21 6:19:486 hrs 39 mins ago0x2dd7911b12b31070bf2d674cccb416608a6c7497 IN 0x9bfa97bc57303c26e26b1f425a549f02a407f3710.349265 AVAX0.000735 35
0x4c4cbf1d3d874861bd511b4dc2ffaa5fc6fa9734f8269ab9cc7afb29a275581bTransfer149749042022-05-21 6:07:476 hrs 51 mins ago0x9dc33752104f6779b7e129dd8e24d0d485eab082 IN 0x9bfa97bc57303c26e26b1f425a549f02a407f3711.12381397 AVAX0.000735 35
0xa63e6b4d3fc00b1805ce7d5ad76bd2e155312648480280edbaf43491ee337402Transfer149747142022-05-21 6:01:266 hrs 57 mins ago0x9bfa97bc57303c26e26b1f425a549f02a407f371OUT0x3876ae131c01841688432a5eb0477aac20cc65f80.00172153 AVAX0.000735 35
0x0ba16b5986fde75aca44aa3f4ecd06c69015bc13dcc8bb1d8c167b42f7bb02b9Transfer149745052022-05-21 5:54:287 hrs 4 mins ago0x9bfa97bc57303c26e26b1f425a549f02a407f371OUT 0xfcc6ce74f4cd7edef0c5429bb99d38a3608043a50 AVAX0.001288525 25
0xb258b91f05e8b516168257cf90d925a99adcdfde5b9bdef32462b4f8ce0be2f9Transfer149726892022-05-21 4:53:438 hrs 5 mins ago0x93caf30f6329e4adec194c489f1eba0155d560fc IN 0x9bfa97bc57303c26e26b1f425a549f02a407f3710.399265 AVAX0.000735 35
[ Download CSV Export 
Parent Txn Hash Block From To Value
Loading

Contract Name:
0

Compiler Version
0

Optimization Enabled:
0

Other Settings:
-NA-
Block Transaction Gas Used Reward
Age Block Fee Address BC Fee Address Voting Power Jailed Incoming
Block Uncle Number Difficulty Gas Used Reward
Loading
Make sure to use the "Vote Down" button for any spammy posts, and the "Vote Up" for interesting conversations.